This is the latest recevied weather packets stored in our database for station/object IU0KRR-10. If no packets are shown the sender has not sent any weather packets the latest 1 day(s).
| Time | Temp. | Humidity | Pressure | Rain* | Wind** | Luminosity | Snow |
|---|---|---|---|---|---|---|---|
| 1778050767 | 18.89° C | 40% | 869.5 hPa | - | - | - | - |
| 1778049867 | 18.89° C | 40% | 869.5 hPa | - | - | - | - |
| 1778048967 | 18.89° C | 40% | 869.5 hPa | - | - | - | - |
| 1778048067 | 18.89° C | 40% | 869.4 hPa | - | - | - | - |
| 1778047167 | 18.89° C | 38% | 869.6 hPa | - | - | - | - |
| 1778046267 | 18.89° C | 37% | 869.6 hPa | - | - | - | - |
| 1778045367 | 18.89° C | 39% | 869.6 hPa | - | - | - | - |
| 1778042666 | 20° C | 39% | 869.6 hPa | - | - | - | - |
| 1778041766 | 20° C | 39% | 869.6 hPa | - | - | - | - |
| 1778040866 | 20° C | 39% | 869.6 hPa | - | - | - | - |
| 1778039966 | 20° C | 39% | 869.9 hPa | - | - | - | - |
| 1778039066 | 20° C | 40% | 869.9 hPa | - | - | - | - |
| 1778038166 | 20.56° C | 39% | 869.9 hPa | - | - | - | - |
| 1778037266 | 20.56° C | 40% | 869.9 hPa | - | - | - | - |
| 1778036366 | 20.56° C | 41% | 870 hPa | - | - | - | - |
| 1778034565 | 21.11° C | 41% | 870 hPa | - | - | - | - |
| 1778033665 | 21.11° C | 40% | 870.1 hPa | - | - | - | - |
| 1778032764 | 21.11° C | 40% | 870.2 hPa | - | - | - | - |
| 1778031864 | 21.11° C | 40% | 870 hPa | - | - | - | - |
| 1778030964 | 21.11° C | 40% | 870.3 hPa | - | - | - | - |
| 1778030064 | 21.67° C | 39% | 870.4 hPa | - | - | - | - |
| 1778029164 | 21.67° C | 39% | 870.3 hPa | - | - | - | - |
| 1778028264 | 21.67° C | 39% | 870.4 hPa | - | - | - | - |
| 1778027364 | 21.67° C | 39% | 870.3 hPa | - | - | - | - |
| 1778026464 | 21.11° C | 40% | 870.5 hPa | - | - | - | - |
* Rain since midnight (hover to see other rain measurements)
** Current wind speed in m/s (hover to see current wind gust speed)